Retour au catalogue

CZ-6A DEB

ActifPO
NORAD 61408·DEBRIS·🇨🇳 China

Lancé Aug 6, 2024 depuis Taiyuan Satellite Launch Center

Loading…

Prochains Passages (prochaines 24 heures)

TLE

FraisSource: Space-Track

Époque: Sep 14, 2026, 11:04 UTC

1 61408U 24140XZ  26257.46122590  .00002865  00000-0  10029-2 0  9996
2 61408  89.0148 264.6940 0018097 174.6991 185.4403 14.34835118105025

Suivez CZ-6A DEB en temps réel avec AllMySat

Download on the App Store